Weather History for 94120 - May, 2013

Change the Weather History Date:

Tuesday, May 7, 2013

  Actual Average Record
Temperature  
Mean Temperature 83 °F -  
Max Temperature 92 °F 89 °F - ()
Min Temperature 74 °F 71 °F - ()
Cooling Degree Days 18    
Growing Degree Days 33 (Base 50)    
Moisture  
Dew Point 68 °F    
Average Humidity 64    
Maximum Humidity 94    
Minimum Humidity 26    
Precipitation  
Precipitation 0.00 in 0.03 in - ()
Sea Level Pressure  
Sea Level Pressure 29.80 in    
Wind  
Wind Speed 7 mph ()    
Max Wind Speed 16 mph    
Max Gust Speed -    
Visibility 10.2 miles    
Events      
T = Trace of Precipitation, MM = Missing Value Source: Averaged Metar Reports

Daily Weather History Graph

Daily Weather History Graph

Search for Another Location

Airport or City:

Trip Planner

Search our weather history database for the weather conditions in past years. The results will help you decide how hot, cold, wet, or windy it might be!

Date:

Astronomy

May. 07, 2013 Rise Set
Actual Time 6:54 AM ACST 6:31 PM ACST
Civil Twilight 6:32 AM ACST 6:53 PM ACST
Nautical Twilight 6:07 AM ACST 7:18 PM ACST
Astronomical Twilight 5:41 AM ACST 7:44 PM ACST
Moon 4:23 AM ACST (5/7) 4:31 PM ACST (5/7)
Length of Visible Light 12h 20m
Length of Day
11h 36m
Waning Crescent, 8% of the Moon is Illuminated
May 7
Waning Crescent
May 10
New
May 18
First Quarter
May 25
Full
Jun 1
Last Quarter

Hourly Weather History & Observations

Time (ACST) Temp. Heat Index Dew Point Humidity Pressure Visibility Wind Dir Wind Speed Gust Speed Precip Events Conditions
12:00 AM 78 °F - 73 °F 81% 29.81 in 19 mi ESE 4.6 mph - -   Partly Cloudy
12:00 AM 77.0 °F - 73.4 °F 89% 29.80 in - ESE 4.6 mph - N/A   Clear
12:30 AM 79 °F - 72 °F 73% 29.80 in - SE 5.8 mph - -  
12:30 AM 78.8 °F - 71.6 °F 78% 29.80 in - SE 5.8 mph - N/A   Clear
1:00 AM 77.0 °F - 71.6 °F 83% 29.80 in - SE 5.8 mph - N/A   Clear
1:30 AM 78.8 °F - 71.6 °F 78% 29.80 in - SE 5.8 mph - N/A   Clear
2:00 AM 77.0 °F - 73.4 °F 89% 29.80 in - SSE 5.8 mph - N/A   Clear
2:30 AM 77.0 °F - 73.4 °F 89% 29.77 in - SE 3.5 mph - N/A   Clear
3:00 AM 76 °F - 73 °F 88% 29.79 in 12 mi SSE 4.6 mph - -   Smoke
3:00 AM 75.2 °F - 73.4 °F 94% 29.77 in - SSE 4.6 mph - N/A   Clear
3:30 AM 76 °F - 73 °F 87% 29.78 in - East 1.2 mph - -  
3:30 AM 75.2 °F - 73.4 °F 94% 29.77 in 6.2 mi East 1.2 mph - N/A   Partly Cloudy
4:00 AM 75.2 °F - 73.4 °F 94% 29.80 in 6.2 mi ENE 1.2 mph - N/A   Scattered Clouds
4:30 AM 77.0 °F - 73.4 °F 89% 29.77 in 6.2 mi ESE 4.6 mph - N/A   Partly Cloudy
5:00 AM 77.0 °F - 73.4 °F 89% 29.77 in 6.2 mi SE 5.8 mph - N/A   Partly Cloudy
5:30 AM 75.2 °F - 73.4 °F 94% 29.80 in - SE 4.6 mph - N/A   Clear
6:00 AM 75 °F - 73 °F 92% 29.81 in 12 mi ESE 4.6 mph - -   Smoke
6:00 AM 75.2 °F - 73.4 °F 94% 29.80 in - ESE 4.6 mph - N/A   Clear
6:30 AM 77.0 °F - 73.4 °F 89% 29.80 in - SE 5.8 mph - N/A   Clear
7:00 AM 75.2 °F - 73.4 °F 94% 29.83 in - ESE 5.8 mph - N/A   Clear
7:30 AM 78.8 °F - 73.4 °F 83% 29.83 in 6.2 mi ESE 5.8 mph - N/A   Partly Cloudy
8:00 AM 80.6 °F 85.4 °F 73.4 °F 79% 29.83 in 6.2 mi ESE 6.9 mph - N/A   Partly Cloudy
8:30 AM 82.4 °F 88.2 °F 73.4 °F 74% 29.83 in 6.2 mi East 9.2 mph - N/A   Partly Cloudy
9:00 AM 84 °F - 71 °F 56% 29.85 in 19 mi East 10.4 mph - -   Partly Cloudy
9:00 AM 84.2 °F 88.4 °F 69.8 °F 62% 29.86 in 6.2 mi East 10.4 mph - N/A   Partly Cloudy
9:30 AM 86 °F - 67 °F 44% 29.86 in - East 12.7 mph - -  
9:30 AM 86.0 °F 89.4 °F 68.0 °F 55% 29.86 in 6.2 mi East 12.7 mph - N/A   Partly Cloudy
10:00 AM 86.0 °F 87.3 °F 64.4 °F 48% 29.86 in 6.2 mi East 16.1 mph - N/A   Scattered Clouds
10:30 AM 87.8 °F 89.4 °F 64.4 °F 46% 29.86 in 6.2 mi East 16.1 mph - N/A   Scattered Clouds
11:00 AM 87.8 °F 89.4 °F 64.4 °F 46% 29.86 in 6.2 mi ENE 16.1 mph - N/A   Scattered Clouds
11:30 AM 87.8 °F 89.4 °F 64.4 °F 46% 29.83 in 6.2 mi ENE 13.8 mph - N/A   Scattered Clouds
12:00 PM 89 °F - 65 °F 35% 29.83 in 19 mi East 13.8 mph - -   Partly Cloudy
12:00 PM 87.8 °F 89.4 °F 64.4 °F 46% 29.83 in 6.2 mi East 13.8 mph - N/A   Scattered Clouds
12:30 PM 89 °F - 62 °F 31% 29.82 in - East 15.0 mph - -  
12:30 PM 87.8 °F 88.5 °F 62.6 °F 43% 29.80 in - East 15.0 mph - N/A   Clear
1:00 PM 89.6 °F 91.1 °F 64.4 °F 43% 29.80 in - East 13.8 mph - N/A   Clear
1:30 PM 89.6 °F 90.1 °F 62.6 °F 40% 29.77 in - East 13.8 mph - N/A   Clear
2:00 PM 91.4 °F 92.1 °F 62.6 °F 38% 29.77 in - East 15.0 mph - N/A   Clear
2:30 PM 89.6 °F 91.1 °F 64.4 °F 43% 29.77 in - ESE 10.4 mph - N/A   Clear
3:00 PM 92 °F - 62 °F 27% 29.76 in 19 mi East 13.8 mph - -   Partly Cloudy
3:00 PM 91.4 °F 92.1 °F 62.6 °F 38% 29.77 in - East 13.8 mph - N/A   Clear
3:30 PM 92 °F - 61 °F 26% 29.75 in - ESE 13.8 mph - -  
3:30 PM 91.4 °F 91.4 °F 60.8 °F 36% 29.74 in - ESE 13.8 mph - N/A   Clear
4:00 PM 89.6 °F 89.5 °F 60.8 °F 38% 29.74 in - ESE 10.4 mph - N/A   Clear
4:30 PM 91.4 °F 92.1 °F 62.6 °F 38% 29.74 in - ENE 10.4 mph - N/A   Clear
5:00 PM 87.8 °F 91.4 °F 68.0 °F 52% 29.74 in - NE 13.8 mph - N/A   Clear
5:30 PM 87.8 °F 91.4 °F 68.0 °F 52% 29.74 in - NNE 15.0 mph - N/A   Clear
6:00 PM 86 °F - 68 °F 45% 29.76 in 19 mi NNE 12.7 mph - -   Partly Cloudy
6:00 PM 86.0 °F 89.4 °F 68.0 °F 55% 29.77 in - NNE 12.7 mph - N/A   Clear
6:30 PM 85 °F - 67 °F 46% 29.77 in - NE 11.5 mph - -  
6:30 PM 84.2 °F 87.3 °F 68.0 °F 58% 29.77 in - NE 11.5 mph - N/A   Clear
7:00 PM 84.2 °F 86.6 °F 66.2 °F 55% 29.77 in - NE 10.4 mph - N/A   Clear
7:30 PM 82.4 °F 84.6 °F 66.2 °F 58% 29.77 in - NE 8.1 mph - N/A   Clear
8:00 PM 80.6 °F 83.2 °F 68.0 °F 65% 29.80 in - NE 8.1 mph - N/A   Clear
8:30 PM 80.6 °F 83.2 °F 68.0 °F 65% 29.80 in - NE 8.1 mph - N/A   Clear
9:00 PM 79 °F - 67 °F 60% 29.82 in 19 mi ENE 6.9 mph - -   Partly Cloudy
9:00 PM 78.8 °F - 68.0 °F 69% 29.80 in - ENE 6.9 mph - N/A   Clear
9:30 PM 79 °F - 68 °F 61% 29.82 in - NE 6.9 mph - -  
9:30 PM 78.8 °F - 68.0 °F 69% 29.83 in - NE 6.9 mph - N/A   Clear
10:00 PM 77.0 °F - 68.0 °F 74% 29.83 in - ENE 5.8 mph - N/A   Clear
10:30 PM 77.0 °F - 68.0 °F 74% 29.83 in - ESE 4.6 mph - N/A   Clear
11:00 PM 77.0 °F - 68.0 °F 74% 29.83 in - SE 5.8 mph - N/A   Clear
11:30 PM 78.8 °F - 68.0 °F 69% 29.83 in - SE 6.9 mph - N/A   Clear